Year,Month,Day,Hour,Minute,Value (Times are PST for temperature in C)
2021,08,13,00,00,23.70
2021,08,13,00,01,23.60
2021,08,13,00,02,23.60
2021,08,13,00,03,23.60
2021,08,13,00,04,23.50
2021,08,13,00,05,23.50
2021,08,13,00,06,23.40
2021,08,13,00,07,23.40
2021,08,13,00,08,23.30
2021,08,13,00,09,23.30
2021,08,13,00,10,23.30
2021,08,13,00,11,23.30
2021,08,13,00,12,23.20
2021,08,13,00,13,23.20
2021,08,13,00,14,23.20
2021,08,13,00,15,23.20
2021,08,13,00,16,23.20
2021,08,13,00,17,23.10
2021,08,13,00,18,23.10
2021,08,13,00,19,23.10
2021,08,13,00,20,23.10
2021,08,13,00,21,23.10
2021,08,13,00,22,23.00
2021,08,13,00,23,23.00
2021,08,13,00,24,23.00
2021,08,13,00,25,22.90
2021,08,13,00,26,23.00
2021,08,13,00,27,22.90
2021,08,13,00,28,22.90
2021,08,13,00,29,23.00
2021,08,13,00,30,23.00
2021,08,13,00,31,23.00
2021,08,13,00,32,23.00
2021,08,13,00,33,23.00
2021,08,13,00,34,23.00
2021,08,13,00,35,23.00
2021,08,13,00,36,23.00
2021,08,13,00,37,23.00
2021,08,13,00,38,23.00
2021,08,13,00,39,23.00
2021,08,13,00,40,23.10
2021,08,13,00,41,23.10
2021,08,13,00,42,23.20
2021,08,13,00,43,23.20
2021,08,13,00,44,23.30
2021,08,13,00,45,23.40
2021,08,13,00,46,23.40
2021,08,13,00,47,23.50
2021,08,13,00,48,23.50
2021,08,13,00,49,23.60
2021,08,13,00,50,23.50
2021,08,13,00,51,23.50
2021,08,13,00,52,23.50
2021,08,13,00,53,23.40
2021,08,13,00,54,23.40
2021,08,13,00,55,23.30
2021,08,13,00,56,23.30
2021,08,13,00,57,23.20
2021,08,13,00,58,23.20
2021,08,13,00,59,23.10
2021,08,13,01,00,23.10
2021,08,13,01,01,23.00
2021,08,13,01,02,22.90
2021,08,13,01,03,22.90
2021,08,13,01,04,22.80
2021,08,13,01,05,22.70
2021,08,13,01,06,22.60
2021,08,13,01,07,22.60
2021,08,13,01,08,22.50
2021,08,13,01,09,22.50
2021,08,13,01,10,22.50
2021,08,13,01,11,22.50
2021,08,13,01,12,22.40
2021,08,13,01,13,22.40
2021,08,13,01,14,22.40
2021,08,13,01,15,22.30
2021,08,13,01,16,22.30
2021,08,13,01,17,22.30
2021,08,13,01,18,22.30
2021,08,13,01,19,22.30
2021,08,13,01,20,22.30
2021,08,13,01,21,22.30
2021,08,13,01,22,22.30
2021,08,13,01,23,22.20
2021,08,13,01,24,22.20
2021,08,13,01,25,22.10
2021,08,13,01,26,22.10
2021,08,13,01,27,22.00
2021,08,13,01,28,22.00
2021,08,13,01,29,21.90
2021,08,13,01,30,21.90
2021,08,13,01,31,21.90
2021,08,13,01,32,21.90
2021,08,13,01,33,21.80
2021,08,13,01,34,21.80
2021,08,13,01,35,21.80
2021,08,13,01,36,21.80
2021,08,13,01,37,21.80
2021,08,13,01,38,21.80
2021,08,13,01,39,21.70
2021,08,13,01,40,21.70
2021,08,13,01,41,21.70
2021,08,13,01,42,21.70
2021,08,13,01,43,21.70
2021,08,13,01,44,21.60
2021,08,13,01,45,21.60
2021,08,13,01,46,21.60
2021,08,13,01,47,21.60
2021,08,13,01,48,21.60
2021,08,13,01,49,21.60
2021,08,13,01,50,21.60
2021,08,13,01,51,21.60
2021,08,13,01,52,21.60
2021,08,13,01,53,21.60
2021,08,13,01,54,21.60
2021,08,13,01,55,21.60
2021,08,13,01,56,21.70
2021,08,13,01,57,21.70
2021,08,13,01,58,21.70
2021,08,13,01,59,21.70
2021,08,13,02,00,21.70
2021,08,13,02,01,21.70
2021,08,13,02,02,21.70
2021,08,13,02,03,21.70
2021,08,13,02,04,21.70
2021,08,13,02,05,21.70
2021,08,13,02,06,21.70
2021,08,13,02,07,21.70
2021,08,13,02,08,21.80
2021,08,13,02,09,21.80
2021,08,13,02,10,21.80
2021,08,13,02,11,21.90
2021,08,13,02,12,21.90
2021,08,13,02,13,21.90
2021,08,13,02,14,22.00
2021,08,13,02,15,22.00
2021,08,13,02,16,22.10
2021,08,13,02,17,22.10
2021,08,13,02,18,22.10
2021,08,13,02,19,22.10
2021,08,13,02,20,22.10
2021,08,13,02,21,22.10
2021,08,13,02,22,22.10
2021,08,13,02,23,22.10
2021,08,13,02,24,22.10
2021,08,13,02,25,22.10
2021,08,13,02,26,22.10
2021,08,13,02,27,22.00
2021,08,13,02,28,22.00
2021,08,13,02,29,22.00
2021,08,13,02,30,21.90
2021,08,13,02,31,21.90
2021,08,13,02,32,21.90
2021,08,13,02,33,21.90
2021,08,13,02,34,21.90
2021,08,13,02,35,21.90
2021,08,13,02,36,21.90
2021,08,13,02,37,21.90
2021,08,13,02,38,21.90
2021,08,13,02,39,21.90
2021,08,13,02,40,21.90
2021,08,13,02,41,21.90
2021,08,13,02,42,21.90
2021,08,13,02,43,21.90
2021,08,13,02,44,21.80
2021,08,13,02,45,21.80
2021,08,13,02,46,21.80
2021,08,13,02,47,21.80
2021,08,13,02,48,21.80
2021,08,13,02,49,21.80
2021,08,13,02,50,21.80
2021,08,13,02,51,21.80
2021,08,13,02,52,21.80
2021,08,13,02,53,21.80
2021,08,13,02,54,21.70
2021,08,13,02,55,21.70
2021,08,13,02,56,21.70
2021,08,13,02,57,21.70
2021,08,13,02,58,21.60
2021,08,13,02,59,21.60
2021,08,13,03,00,21.60
2021,08,13,03,01,21.60
2021,08,13,03,02,21.60
2021,08,13,03,03,21.60
2021,08,13,03,04,21.60
2021,08,13,03,05,21.60
2021,08,13,03,06,21.70
2021,08,13,03,07,21.70
2021,08,13,03,08,21.70
2021,08,13,03,09,21.70
2021,08,13,03,10,21.70
2021,08,13,03,11,21.80
2021,08,13,03,12,21.70
2021,08,13,03,13,21.70
2021,08,13,03,14,21.70
2021,08,13,03,15,21.70
2021,08,13,03,16,21.80
2021,08,13,03,17,21.80
2021,08,13,03,18,21.80
2021,08,13,03,19,21.80
2021,08,13,03,20,21.90
2021,08,13,03,21,21.90
2021,08,13,03,22,21.90
2021,08,13,03,23,21.90
2021,08,13,03,24,22.00
2021,08,13,03,25,22.00
2021,08,13,03,26,22.10
2021,08,13,03,27,22.10
2021,08,13,03,28,22.10
2021,08,13,03,29,22.10
2021,08,13,03,30,22.10
2021,08,13,03,31,22.10
2021,08,13,03,32,22.10
2021,08,13,03,33,22.10
2021,08,13,03,34,22.10
2021,08,13,03,35,22.10
2021,08,13,03,36,22.20
2021,08,13,03,37,22.20
2021,08,13,03,38,22.20
2021,08,13,03,39,22.20
2021,08,13,03,40,22.20
2021,08,13,03,41,22.20
2021,08,13,03,42,22.20
2021,08,13,03,43,22.10
2021,08,13,03,44,22.10
2021,08,13,03,45,22.10
2021,08,13,03,46,22.10
2021,08,13,03,47,22.10
2021,08,13,03,48,22.10
2021,08,13,03,49,22.10
2021,08,13,03,50,22.10
2021,08,13,03,51,22.10
2021,08,13,03,52,22.10
2021,08,13,03,53,22.10
2021,08,13,03,54,22.10
2021,08,13,03,55,22.10
2021,08,13,03,56,22.10
2021,08,13,03,57,22.10
2021,08,13,03,58,22.10
2021,08,13,03,59,22.10
2021,08,13,04,00,22.10
2021,08,13,04,01,22.10
2021,08,13,04,02,22.10
2021,08,13,04,03,22.10
2021,08,13,04,04,22.20
2021,08,13,04,05,22.20
2021,08,13,04,06,22.20
2021,08,13,04,07,22.30
2021,08,13,04,08,22.40
2021,08,13,04,09,22.40
2021,08,13,04,10,22.50
2021,08,13,04,11,22.50
2021,08,13,04,12,22.60
2021,08,13,04,13,22.70
2021,08,13,04,14,22.80
2021,08,13,04,15,22.90
2021,08,13,04,16,22.90
2021,08,13,04,17,23.00
2021,08,13,04,18,23.10
2021,08,13,04,19,23.10
2021,08,13,04,20,23.10
2021,08,13,04,21,23.10
2021,08,13,04,22,23.20
2021,08,13,04,23,23.20
2021,08,13,04,24,23.20
2021,08,13,04,25,23.30
2021,08,13,04,26,23.30
2021,08,13,04,27,23.30
2021,08,13,04,28,23.30
2021,08,13,04,29,23.40
2021,08,13,04,30,23.40
2021,08,13,04,31,23.40
2021,08,13,04,32,23.40
2021,08,13,04,33,23.30
2021,08,13,04,34,23.30
2021,08,13,04,35,23.30
2021,08,13,04,36,23.30
2021,08,13,04,37,23.20
2021,08,13,04,38,23.20
2021,08,13,04,39,23.20
2021,08,13,04,40,23.10
2021,08,13,04,41,23.10
2021,08,13,04,42,23.10
2021,08,13,04,43,23.10
2021,08,13,04,44,23.10
2021,08,13,04,45,23.10
2021,08,13,04,46,23.10
2021,08,13,04,47,23.10
2021,08,13,04,48,23.10
2021,08,13,04,49,23.10
2021,08,13,04,50,23.10
2021,08,13,04,51,23.10
2021,08,13,04,52,23.10
2021,08,13,04,53,23.20
2021,08,13,04,54,23.20
2021,08,13,04,55,23.20
2021,08,13,04,56,23.20
2021,08,13,04,57,23.10
2021,08,13,04,58,23.10
2021,08,13,04,59,23.10
2021,08,13,05,00,23.10
2021,08,13,05,01,23.10
2021,08,13,05,02,23.10
2021,08,13,05,03,23.10
2021,08,13,05,04,23.00
2021,08,13,05,05,23.00
2021,08,13,05,06,23.00
2021,08,13,05,07,23.00
2021,08,13,05,08,22.90
2021,08,13,05,09,22.90
2021,08,13,05,10,22.90
2021,08,13,05,11,22.80
2021,08,13,05,12,22.80
2021,08,13,05,13,22.80
2021,08,13,05,14,22.70
2021,08,13,05,15,22.70
2021,08,13,05,16,22.70
2021,08,13,05,17,22.60
2021,08,13,05,18,22.60
2021,08,13,05,19,22.50
2021,08,13,05,20,22.50
2021,08,13,05,21,22.40
2021,08,13,05,22,22.40
2021,08,13,05,23,22.30
2021,08,13,05,24,22.30
2021,08,13,05,25,22.30
2021,08,13,05,26,22.20
2021,08,13,05,27,22.20
2021,08,13,05,28,22.10
2021,08,13,05,29,22.10
2021,08,13,05,30,22.00
2021,08,13,05,31,22.00
2021,08,13,05,32,21.90
2021,08,13,05,33,21.90
2021,08,13,05,34,21.90
2021,08,13,05,35,21.90
2021,08,13,05,36,21.80
2021,08,13,05,37,21.80
2021,08,13,05,38,21.80
2021,08,13,05,39,21.70
2021,08,13,05,40,21.70
2021,08,13,05,41,21.70
2021,08,13,05,42,21.70
2021,08,13,05,43,21.60
2021,08,13,05,44,21.60
2021,08,13,05,45,21.50
2021,08,13,05,46,21.50
2021,08,13,05,47,21.40
2021,08,13,05,48,21.40
2021,08,13,05,49,21.30
2021,08,13,05,50,21.30
2021,08,13,05,51,21.20
2021,08,13,05,52,21.20
2021,08,13,05,53,21.20
2021,08,13,05,54,21.20
2021,08,13,05,55,21.10
2021,08,13,05,56,21.10
2021,08,13,05,57,21.10
2021,08,13,05,58,21.10
2021,08,13,05,59,21.10
2021,08,13,06,00,21.10
2021,08,13,06,01,21.10
2021,08,13,06,02,21.00
2021,08,13,06,03,21.00
2021,08,13,06,04,21.00
2021,08,13,06,05,20.90
2021,08,13,06,06,20.90
2021,08,13,06,07,20.90
2021,08,13,06,08,20.90
2021,08,13,06,09,20.90
2021,08,13,06,10,20.90
2021,08,13,06,11,20.90
2021,08,13,06,12,20.80
2021,08,13,06,13,20.80
2021,08,13,06,14,20.80
2021,08,13,06,15,20.80
2021,08,13,06,16,20.70
2021,08,13,06,17,20.70
2021,08,13,06,18,20.70
2021,08,13,06,19,20.70
2021,08,13,06,20,20.60
2021,08,13,06,21,20.60
2021,08,13,06,22,20.50
2021,08,13,06,23,20.50
2021,08,13,06,24,20.40
2021,08,13,06,25,20.30
2021,08,13,06,26,20.30
2021,08,13,06,27,20.20
2021,08,13,06,28,20.20
2021,08,13,06,29,20.20
2021,08,13,06,30,20.20
2021,08,13,06,31,20.10
2021,08,13,06,32,20.10
2021,08,13,06,33,20.10
2021,08,13,06,34,20.10
2021,08,13,06,35,20.10
2021,08,13,06,36,20.10
2021,08,13,06,37,20.10
2021,08,13,06,38,20.10
2021,08,13,06,39,20.10
2021,08,13,06,40,20.10
2021,08,13,06,41,20.10
2021,08,13,06,42,20.10
2021,08,13,06,43,20.10
2021,08,13,06,44,20.10
2021,08,13,06,45,20.10
2021,08,13,06,46,20.10
2021,08,13,06,47,20.10
2021,08,13,06,48,20.10
2021,08,13,06,49,20.00
2021,08,13,06,50,20.00
2021,08,13,06,51,20.00
2021,08,13,06,52,20.00
2021,08,13,06,53,20.00
2021,08,13,06,54,20.00
2021,08,13,06,55,19.90
2021,08,13,06,56,19.90
2021,08,13,06,57,19.90
2021,08,13,06,58,19.90
2021,08,13,06,59,19.90
2021,08,13,07,00,19.90
2021,08,13,07,01,19.90
2021,08,13,07,02,19.90
2021,08,13,07,03,20.00
2021,08,13,07,04,20.00
2021,08,13,07,05,20.00
2021,08,13,07,06,20.00
2021,08,13,07,07,20.00
2021,08,13,07,08,20.00
2021,08,13,07,09,20.10
2021,08,13,07,10,20.10
2021,08,13,07,11,20.10
2021,08,13,07,12,20.10
2021,08,13,07,13,20.10
2021,08,13,07,14,20.10
2021,08,13,07,15,20.20
2021,08,13,07,16,20.20
2021,08,13,07,17,20.20
2021,08,13,07,18,20.20
2021,08,13,07,19,20.20
2021,08,13,07,20,20.30
2021,08,13,07,21,20.30
2021,08,13,07,22,20.30
2021,08,13,07,23,20.30
2021,08,13,07,24,20.30
2021,08,13,07,25,20.30
2021,08,13,07,26,20.40
2021,08,13,07,27,20.40
2021,08,13,07,28,20.40
2021,08,13,07,29,20.40
2021,08,13,07,30,20.50
2021,08,13,07,31,20.50
2021,08,13,07,32,20.60
2021,08,13,07,33,20.60
2021,08,13,07,34,20.60
2021,08,13,07,35,20.70
2021,08,13,07,36,20.70
2021,08,13,07,37,20.70
2021,08,13,07,38,20.70
2021,08,13,07,39,20.70
2021,08,13,07,40,20.80
2021,08,13,07,41,20.80
2021,08,13,07,42,20.80
2021,08,13,07,43,20.80
2021,08,13,07,44,20.80
2021,08,13,07,45,20.80
2021,08,13,07,46,20.80
2021,08,13,07,47,20.90
2021,08,13,07,48,20.90
2021,08,13,07,49,20.90
2021,08,13,07,50,21.00
2021,08,13,07,51,21.00
2021,08,13,07,52,21.00
2021,08,13,07,53,21.10
2021,08,13,07,54,21.10
2021,08,13,07,55,21.10
2021,08,13,07,56,21.10
2021,08,13,07,57,21.10
2021,08,13,07,58,21.20
2021,08,13,07,59,21.20
2021,08,13,08,00,21.20
2021,08,13,08,01,21.20
2021,08,13,08,02,21.20
2021,08,13,08,03,21.20
2021,08,13,08,04,21.20
2021,08,13,08,05,21.20
2021,08,13,08,06,21.20
2021,08,13,08,07,21.20
2021,08,13,08,08,21.20
2021,08,13,08,09,21.30
2021,08,13,08,10,21.30
2021,08,13,08,11,21.30
2021,08,13,08,12,21.30
2021,08,13,08,13,21.40
2021,08,13,08,14,21.40
2021,08,13,08,15,21.40
2021,08,13,08,16,21.40
2021,08,13,08,17,21.50
2021,08,13,08,18,21.50
2021,08,13,08,19,21.60
2021,08,13,08,20,21.70
2021,08,13,08,21,21.70
2021,08,13,08,22,21.70
2021,08,13,08,23,21.80
2021,08,13,08,24,21.80
2021,08,13,08,25,21.90
2021,08,13,08,26,21.90
2021,08,13,08,27,22.00
2021,08,13,08,28,22.00
2021,08,13,08,29,22.10
2021,08,13,08,30,22.10
2021,08,13,08,31,22.20
2021,08,13,08,32,22.30
2021,08,13,08,33,22.40
2021,08,13,08,34,22.50
2021,08,13,08,35,22.50
2021,08,13,08,36,22.60
2021,08,13,08,37,22.60
2021,08,13,08,38,22.70
2021,08,13,08,39,22.70
2021,08,13,08,40,22.80
2021,08,13,08,41,22.80
2021,08,13,08,42,22.80
2021,08,13,08,43,22.80
2021,08,13,08,44,22.80
2021,08,13,08,45,22.90
2021,08,13,08,46,22.90
2021,08,13,08,47,22.90
2021,08,13,08,48,22.90
2021,08,13,08,49,22.90
2021,08,13,08,50,23.00
2021,08,13,08,51,23.00
2021,08,13,08,52,23.10
2021,08,13,08,53,23.10
2021,08,13,08,54,23.10
2021,08,13,08,55,23.20
2021,08,13,08,56,23.20
2021,08,13,08,57,23.30
2021,08,13,08,58,23.30
2021,08,13,08,59,23.40
2021,08,13,09,00,23.50
2021,08,13,09,01,23.50
2021,08,13,09,02,23.60
2021,08,13,09,03,23.70
2021,08,13,09,04,23.80
2021,08,13,09,05,23.90
2021,08,13,09,06,24.00
2021,08,13,09,07,24.10
2021,08,13,09,08,24.20
2021,08,13,09,09,24.30
2021,08,13,09,10,24.40
2021,08,13,09,11,24.40
2021,08,13,09,12,24.50
2021,08,13,09,13,24.60
2021,08,13,09,14,24.70
2021,08,13,09,15,24.80
2021,08,13,09,16,24.80
2021,08,13,09,17,24.90
2021,08,13,09,18,25.00
2021,08,13,09,19,25.00
2021,08,13,09,20,25.10
2021,08,13,09,21,25.20
2021,08,13,09,22,25.20
2021,08,13,09,23,25.30
2021,08,13,09,24,25.40
2021,08,13,09,25,25.50
2021,08,13,09,26,25.60
2021,08,13,09,27,25.60
2021,08,13,09,28,25.70
2021,08,13,09,29,25.80
2021,08,13,09,30,25.80
2021,08,13,09,31,25.90
2021,08,13,09,32,26.00
2021,08,13,09,33,26.00
2021,08,13,09,34,26.10
2021,08,13,09,35,26.20
2021,08,13,09,36,26.20
2021,08,13,09,37,26.30
2021,08,13,09,38,26.30
2021,08,13,09,39,26.30
2021,08,13,09,40,26.30
2021,08,13,09,41,26.40
2021,08,13,09,42,26.40
2021,08,13,09,43,26.40
2021,08,13,09,44,26.40
2021,08,13,09,45,26.50
2021,08,13,09,46,26.50
2021,08,13,09,47,26.60
2021,08,13,09,48,26.60
2021,08,13,09,49,26.70
2021,08,13,09,50,26.70
2021,08,13,09,51,26.70
2021,08,13,09,52,26.70
2021,08,13,09,53,26.70
2021,08,13,09,54,26.70
2021,08,13,09,55,26.70
2021,08,13,09,56,26.70
2021,08,13,09,57,26.60
2021,08,13,09,58,26.60
2021,08,13,09,59,26.60
2021,08,13,10,00,26.50
2021,08,13,10,01,26.50
2021,08,13,10,02,26.50
2021,08,13,10,03,26.60
2021,08,13,10,04,26.60
2021,08,13,10,05,26.60
2021,08,13,10,06,26.70
2021,08,13,10,07,26.70
2021,08,13,10,08,26.70
2021,08,13,10,09,26.70
2021,08,13,10,10,26.70
2021,08,13,10,11,26.70
2021,08,13,10,12,26.70
2021,08,13,10,13,26.60
2021,08,13,10,14,26.60
2021,08,13,10,15,26.40
2021,08,13,10,16,26.30
2021,08,13,10,17,26.30
2021,08,13,10,18,26.20
2021,08,13,10,19,26.10
2021,08,13,10,20,26.10
2021,08,13,10,21,26.10
2021,08,13,10,22,26.00
2021,08,13,10,23,26.00
2021,08,13,10,24,25.90
2021,08,13,10,25,25.90
2021,08,13,10,26,25.90
2021,08,13,10,27,25.90
2021,08,13,10,28,25.80
2021,08,13,10,29,25.80
2021,08,13,10,30,25.80
2021,08,13,10,31,25.80
2021,08,13,10,32,25.80
2021,08,13,10,33,25.80
2021,08,13,10,34,25.80
2021,08,13,10,35,25.80
2021,08,13,10,36,25.80
2021,08,13,10,37,25.80
2021,08,13,10,38,25.80
2021,08,13,10,39,25.80
2021,08,13,10,40,25.90
2021,08,13,10,41,25.90
2021,08,13,10,42,26.00
2021,08,13,10,43,26.00
2021,08,13,10,44,26.10
2021,08,13,10,45,26.10
2021,08,13,10,46,26.10
2021,08,13,10,47,26.20
2021,08,13,10,48,26.20
2021,08,13,10,49,26.20
2021,08,13,10,50,26.30
2021,08,13,10,51,26.30
2021,08,13,10,52,26.40
2021,08,13,10,53,26.50
2021,08,13,10,54,26.50
2021,08,13,10,55,26.60
2021,08,13,10,56,26.70
2021,08,13,10,57,26.70
2021,08,13,10,58,26.80
2021,08,13,10,59,26.80
2021,08,13,11,00,26.80
2021,08,13,11,01,26.90
2021,08,13,11,02,26.90
2021,08,13,11,03,27.00
2021,08,13,11,04,27.00
2021,08,13,11,05,27.10
2021,08,13,11,06,27.10
2021,08,13,11,07,27.20
2021,08,13,11,08,27.20
2021,08,13,11,09,27.30
2021,08,13,11,10,27.30
2021,08,13,11,11,27.40
2021,08,13,11,12,27.40
2021,08,13,11,13,27.50
2021,08,13,11,14,27.50
2021,08,13,11,15,27.50
2021,08,13,11,16,27.60
2021,08,13,11,17,27.60
2021,08,13,11,18,27.60
2021,08,13,11,19,27.60
2021,08,13,11,20,27.60
2021,08,13,11,21,27.60
2021,08,13,11,22,27.60
2021,08,13,11,23,27.60
2021,08,13,11,24,27.50
2021,08,13,11,25,27.60
2021,08,13,11,26,27.60
2021,08,13,11,27,27.60
2021,08,13,11,28,27.60
2021,08,13,11,29,27.60
2021,08,13,11,30,27.70
2021,08,13,11,31,27.70
2021,08,13,11,32,27.80
2021,08,13,11,33,27.80
2021,08,13,11,34,27.90
2021,08,13,11,35,28.00
2021,08,13,11,36,28.00
2021,08,13,11,37,28.10
2021,08,13,11,38,28.10
2021,08,13,11,39,28.20
2021,08,13,11,40,28.20
2021,08,13,11,41,28.30
2021,08,13,11,42,28.30
2021,08,13,11,43,28.30
2021,08,13,11,44,28.40
2021,08,13,11,45,28.50
2021,08,13,11,46,28.50
2021,08,13,11,47,28.60
2021,08,13,11,48,28.60
2021,08,13,11,49,28.60
2021,08,13,11,50,28.60
2021,08,13,11,51,28.60
2021,08,13,11,52,28.70
2021,08,13,11,53,28.70
2021,08,13,11,54,28.60
2021,08,13,11,55,28.60
2021,08,13,11,56,28.60
2021,08,13,11,57,28.50
2021,08,13,11,58,28.50
2021,08,13,11,59,28.50
2021,08,13,12,00,28.50
2021,08,13,12,01,28.40
2021,08,13,12,02,28.40
2021,08,13,12,03,28.30
2021,08,13,12,04,28.30
2021,08,13,12,05,28.30
2021,08,13,12,06,28.30
2021,08,13,12,07,28.30
2021,08,13,12,08,28.30
2021,08,13,12,09,28.40
2021,08,13,12,10,28.40
2021,08,13,12,11,28.40
2021,08,13,12,12,28.40
2021,08,13,12,13,28.40
2021,08,13,12,14,28.40
2021,08,13,12,15,28.40
2021,08,13,12,16,28.40
2021,08,13,12,17,28.40
2021,08,13,12,18,28.40
2021,08,13,12,19,28.40
2021,08,13,12,20,28.40
2021,08,13,12,21,28.40
2021,08,13,12,22,28.50
2021,08,13,12,23,28.50
2021,08,13,12,24,28.60
2021,08,13,12,25,28.70
2021,08,13,12,26,28.70
2021,08,13,12,27,28.80
2021,08,13,12,28,28.90
2021,08,13,12,29,28.90
2021,08,13,12,30,29.00
2021,08,13,12,31,29.10
2021,08,13,12,32,29.10
2021,08,13,12,33,29.20
2021,08,13,12,34,29.30
2021,08,13,12,35,29.40
2021,08,13,12,36,29.40
2021,08,13,12,37,29.50
2021,08,13,12,38,29.60
2021,08,13,12,39,29.70
2021,08,13,12,40,29.70
2021,08,13,12,41,29.80
2021,08,13,12,42,29.80
2021,08,13,12,43,29.90
2021,08,13,12,44,29.90
2021,08,13,12,45,29.90
2021,08,13,12,46,29.90
2021,08,13,12,47,29.90
2021,08,13,12,48,29.90
2021,08,13,12,49,29.90
2021,08,13,12,50,29.90
2021,08,13,12,51,29.80
2021,08,13,12,52,29.80
2021,08,13,12,53,29.70
2021,08,13,12,54,29.70
2021,08,13,12,55,29.60
2021,08,13,12,56,29.50
2021,08,13,12,57,29.50
2021,08,13,12,58,29.40
2021,08,13,12,59,29.40
2021,08,13,13,00,29.30
2021,08,13,13,01,29.30
2021,08,13,13,02,29.30
2021,08,13,13,03,29.30
2021,08,13,13,04,29.30
2021,08,13,13,05,29.30
2021,08,13,13,06,29.30
2021,08,13,13,07,29.30
2021,08,13,13,08,29.30
2021,08,13,13,09,29.20
2021,08,13,13,10,29.10
2021,08,13,13,11,29.10
2021,08,13,13,12,29.10
2021,08,13,13,13,29.10
2021,08,13,13,14,29.00
2021,08,13,13,15,29.00
2021,08,13,13,16,28.90
2021,08,13,13,17,28.80
2021,08,13,13,18,28.70
2021,08,13,13,19,28.50
2021,08,13,13,20,28.30
2021,08,13,13,21,28.10
2021,08,13,13,22,27.90
2021,08,13,13,23,27.60
2021,08,13,13,24,27.40
2021,08,13,13,25,27.10
2021,08,13,13,26,26.90
2021,08,13,13,27,26.70
2021,08,13,13,28,26.60
2021,08,13,13,29,26.50
2021,08,13,13,30,26.40
2021,08,13,13,31,26.40
2021,08,13,13,32,26.30
2021,08,13,13,33,26.30
2021,08,13,13,34,26.20
2021,08,13,13,35,26.20
2021,08,13,13,36,26.10
2021,08,13,13,37,26.10
2021,08,13,13,38,26.10
2021,08,13,13,39,26.10
2021,08,13,13,40,26.10
2021,08,13,13,41,26.20
2021,08,13,13,42,26.20
2021,08,13,13,43,26.20
2021,08,13,13,44,26.20
2021,08,13,13,45,26.20
2021,08,13,13,46,26.30
2021,08,13,13,47,26.30
2021,08,13,13,48,26.30
2021,08,13,13,49,26.30
2021,08,13,13,50,26.30
2021,08,13,13,51,26.40
2021,08,13,13,52,26.40
2021,08,13,13,53,26.40
2021,08,13,13,54,26.40
2021,08,13,13,55,26.50
2021,08,13,13,56,26.50
2021,08,13,13,57,26.40
2021,08,13,13,58,26.40
2021,08,13,13,59,26.40
2021,08,13,14,00,26.40
2021,08,13,14,01,26.40
2021,08,13,14,02,26.50
2021,08,13,14,03,26.50
2021,08,13,14,04,26.60
2021,08,13,14,05,26.60
2021,08,13,14,06,26.60
2021,08,13,14,07,26.60
2021,08,13,14,08,26.60
2021,08,13,14,09,26.60
2021,08,13,14,10,26.60
2021,08,13,14,11,26.60
2021,08,13,14,12,26.50
2021,08,13,14,13,26.50
2021,08,13,14,14,26.50
2021,08,13,14,15,26.50
2021,08,13,14,16,26.50
2021,08,13,14,17,26.60
2021,08,13,14,18,26.60
2021,08,13,14,19,26.60
2021,08,13,14,20,26.60
2021,08,13,14,21,26.60
2021,08,13,14,22,26.60
2021,08,13,14,23,26.50
2021,08,13,14,24,26.40
2021,08,13,14,25,26.40
2021,08,13,14,26,26.40
2021,08,13,14,27,26.30
2021,08,13,14,28,26.30
2021,08,13,14,29,26.20
2021,08,13,14,30,26.20
2021,08,13,14,31,26.20
2021,08,13,14,32,26.20
2021,08,13,14,33,26.20
2021,08,13,14,34,26.20
2021,08,13,14,35,26.20
2021,08,13,14,36,26.20
2021,08,13,14,37,26.20
2021,08,13,14,38,26.20
2021,08,13,14,39,26.20
2021,08,13,14,40,26.20
2021,08,13,14,41,26.30
2021,08,13,14,42,26.30
2021,08,13,14,43,26.30
2021,08,13,14,44,26.30
2021,08,13,14,45,26.40
2021,08,13,14,46,26.40
2021,08,13,14,47,26.50
2021,08,13,14,48,26.50
2021,08,13,14,49,26.60
2021,08,13,14,50,26.60
2021,08,13,14,51,26.70
2021,08,13,14,52,26.70
2021,08,13,14,53,26.70
2021,08,13,14,54,26.70
2021,08,13,14,55,26.80
2021,08,13,14,56,26.80
2021,08,13,14,57,26.80
2021,08,13,14,58,26.80
2021,08,13,14,59,26.80
2021,08,13,15,00,26.80
2021,08,13,15,01,26.80
2021,08,13,15,02,26.80
2021,08,13,15,03,26.80
2021,08,13,15,04,26.70
2021,08,13,15,05,26.70
2021,08,13,15,06,26.70
2021,08,13,15,07,26.80
2021,08,13,15,08,26.80
2021,08,13,15,09,26.80
2021,08,13,15,10,26.80
2021,08,13,15,11,26.80
2021,08,13,15,12,26.80
2021,08,13,15,13,26.80
2021,08,13,15,14,26.80
2021,08,13,15,15,26.90
2021,08,13,15,16,26.90
2021,08,13,15,17,26.80
2021,08,13,15,18,26.80
2021,08,13,15,19,26.80
2021,08,13,15,20,26.80
2021,08,13,15,21,26.80
2021,08,13,15,22,26.80
2021,08,13,15,23,26.80
2021,08,13,15,24,26.80
2021,08,13,15,25,26.80
2021,08,13,15,26,26.80
2021,08,13,15,27,26.90
2021,08,13,15,28,26.90
2021,08,13,15,29,26.90
2021,08,13,15,30,26.90
2021,08,13,15,31,26.90
2021,08,13,15,32,27.00
2021,08,13,15,33,27.00
2021,08,13,15,34,27.10
2021,08,13,15,35,27.10
2021,08,13,15,36,27.10
2021,08,13,15,37,27.10
2021,08,13,15,38,27.10
2021,08,13,15,39,27.00
2021,08,13,15,40,27.00
2021,08,13,15,41,27.00
2021,08,13,15,42,27.10
2021,08,13,15,43,27.10
2021,08,13,15,44,27.10
2021,08,13,15,45,27.10
2021,08,13,15,46,27.10
2021,08,13,15,47,27.10
2021,08,13,15,48,27.10
2021,08,13,15,49,27.10
2021,08,13,15,50,27.10
2021,08,13,15,51,27.10
2021,08,13,15,52,27.10
2021,08,13,15,53,27.10
2021,08,13,15,54,27.00
2021,08,13,15,55,27.00
2021,08,13,15,56,27.00
2021,08,13,15,57,26.90
2021,08,13,15,58,26.90
2021,08,13,15,59,26.90
2021,08,13,16,00,26.80
2021,08,13,16,01,26.80
2021,08,13,16,02,26.80
2021,08,13,16,03,26.70
2021,08,13,16,04,26.70
2021,08,13,16,05,26.70
2021,08,13,16,06,26.70
2021,08,13,16,07,26.60
2021,08,13,16,08,26.60
2021,08,13,16,09,26.50
2021,08,13,16,10,26.40
2021,08,13,16,11,26.40
2021,08,13,16,12,26.30
2021,08,13,16,13,26.20
2021,08,13,16,14,26.20
2021,08,13,16,15,26.10
2021,08,13,16,16,25.90
2021,08,13,16,17,25.80
2021,08,13,16,18,25.60
2021,08,13,16,19,25.50
2021,08,13,16,20,25.30
2021,08,13,16,21,25.30
2021,08,13,16,22,25.20
2021,08,13,16,23,25.10
2021,08,13,16,24,25.10
2021,08,13,16,25,25.00
2021,08,13,16,26,25.00
2021,08,13,16,27,24.90
2021,08,13,16,28,24.90
2021,08,13,16,29,24.90
2021,08,13,16,30,24.90
2021,08,13,16,31,24.90
2021,08,13,16,32,24.90
2021,08,13,16,33,24.90
2021,08,13,16,34,24.90
2021,08,13,16,35,24.90
2021,08,13,16,36,24.90
2021,08,13,16,37,24.90
2021,08,13,16,38,24.90
2021,08,13,16,39,25.00
2021,08,13,16,40,25.00
2021,08,13,16,41,25.00
2021,08,13,16,42,25.00
2021,08,13,16,43,24.90
2021,08,13,16,44,24.80
2021,08,13,16,45,24.70
2021,08,13,16,46,24.60
2021,08,13,16,47,24.50
2021,08,13,16,48,24.40
2021,08,13,16,49,24.40
2021,08,13,16,50,24.40
2021,08,13,16,51,24.50
2021,08,13,16,52,24.50
2021,08,13,16,53,24.60
2021,08,13,16,54,24.60
2021,08,13,16,55,24.60
2021,08,13,16,56,24.60
2021,08,13,16,57,24.60
2021,08,13,16,58,24.60
2021,08,13,16,59,24.60
2021,08,13,17,00,24.50
2021,08,13,17,01,24.50
2021,08,13,17,02,24.50
2021,08,13,17,03,24.50
2021,08,13,17,04,24.50
2021,08,13,17,05,24.50
2021,08,13,17,06,24.50
2021,08,13,17,07,24.40
2021,08,13,17,08,24.40
2021,08,13,17,09,24.40
2021,08,13,17,10,24.40
2021,08,13,17,11,24.40
2021,08,13,17,12,24.30
2021,08,13,17,13,24.30
2021,08,13,17,14,24.30
2021,08,13,17,15,24.20
2021,08,13,17,16,24.20
2021,08,13,17,17,24.20
2021,08,13,17,18,24.20
2021,08,13,17,19,24.10